CZ-2C R/B - Orbit

View from above orbital plane
View from above orbital plane
View from above satellite
View from above satellite

Ground track
Ground track

The orbit data is extracted from the following two-line orbital elements,

1 28480U 04046B   13139.50808525  .00000119  00000-0  61506-4 0   664
2 28480 098.0548 321.8403 0141857 307.2322 108.2496 14.25115840442016
Epoch (UTC): 19 May 2013 12:11:38
Eccentricity: 0.0141857
inclination: 98.0548°
perigee height: 706 km
apogee height: 910 km
right ascension of ascending node: 321.8403°
argument of perigee: 307.2322°
revolutions per day: 14.25115840
mean anomaly at epoch: 108.2496°
orbit number at epoch: 44201

The dashed part of the orbit path shows where the satellite is in the earth's shadow,  

Developed and maintained by Chris Peat, Heavens-Above GmbH. Please read the updated FAQ before sending e-mail. Imprint. DLR